Hourly Data Report for October 11, 2019

All times are specified in Local Standard Time (LST). Add 1 hour to adjust for Daylight Saving Time where and when it is observed.

SEPT-ILES
QUEBEC
Current Station Operator: ECCC - MSC

50°13'00.000" N
66°15'00.000" W
52.60 m
7047914
71279
XZV

Download Data

Hourly Data (October 2019)
Hourly Data Report for October 11, 2019
TIME Temp Definition
°C
Dew Point Definition
°C
Rel Hum Definition
%
Wind Dir Definition
10's deg

Wind Spd Definition
km/h
Visibility Definition
km
Stn Press Definition
kPa
Hmdx Definition


Wind Chill Definition


Weather Definition


00:00 -0.5 -1.7 92 3 5   102.56   -2 LegendNANA
01:00 0.9 -0.9 88 2 6   102.58     LegendNANA
02:00 -0.1 -0.8 95 2 6   102.59   -2 LegendNANA
03:00 4.3 2.1 85 1 9   102.59     LegendNANA
04:00 4.2 2.1 86 2 8   102.59     LegendNANA
05:00 3.6 1.8 88 3 8   102.62     LegendNANA
06:00 1.5 -0.1 89 2 5   102.68     LegendNANA
07:00 4.9 2.8 86 3 4   102.74     LegendNANA
08:00 8.9 4.3 73 5 2   102.77     LegendNANA
09:00 11.1 4.7 65 13 2   102.76     LegendNANA
10:00 13.0 4.0 55 6 5   102.74     LegendNANA
11:00 9.2 3.4 67 15 11   102.74     LegendNANA
12:00 10.7 5.2 69 16 7   102.69     LegendNANA
13:00 10.0 5.5 74 16 9   102.64     LegendNANA
14:00 10.0 6.5 79 16 7   102.62     LegendNANA
15:00 11.8 5.3 64 0 1   102.55     LegendNANA
16:00 8.6 6.1 84 14 4   102.54     LegendNANA
17:00 6.0 4.2 88 18 1   102.58     LegendNANA
18:00 3.7 2.0 89 4 3   102.58     LegendNANA
19:00 5.1 3.5 89 3 7   102.54     LegendNANA
20:00 4.3 2.1 86 3 6   102.54     LegendNANA
21:00 5.7 2.2 78 3 8   102.47     LegendNANA
22:00 5.3 2.1 80 3 7   102.43     LegendNANA
23:00 5.7 1.7 76 3 8   102.35     LegendNANA

Notes on Data Quality.

Legend

  • E = Estimated
  • M = Missing
  • NA = Not Available
Date modified: